This demonstration page uses our WeatherBlox Daily Observations layout. Learn more.

Left ArrowRight Arrow

38.88101, -77.10428

Hourly Observations for January 5, 2015

Temp ( °F °C ) Dew Point ( °F °C ) Humidity (%) Winds ( mph kmh ) Pressure ( in mb ) Visibility ( mi km ) Precip ( " mm )
12:52 am 00:52 Mostly Cloudy 50 10 28 -2.2 43 43 WNW 21 33 30.00 1016 10 16 N/A
1:52 am 01:52 Mostly Cloudy 47 8.3 27 -2.8 46 46 WNW 12 19 30.04 1017 10 16 N/A
2:52 am 02:52 Partly Cloudy 46 7.8 25 -3.9 44 44 WNW 16 26 30.08 1019 10 16 N/A
3:52 am 03:52 Mostly Cloudy 45 7.2 26 -3.3 48 48 NW 17 28 30.08 1019 10 16 N/A
4:52 am 04:52 Partly Cloudy 44 6.7 25 -3.9 47 47 NW 9 15 30.11 1020 10 16 N/A
5:52 am 05:52 Mostly Cloudy 44 6.7 23 -5 43 43 WNW 13 20 30.16 1021 10 16 N/A
6:52 am 06:52 Mostly Cloudy 42 5.6 22 -5.6 45 45 NW 12 19 30.18 1022 10 16 N/A
7:52 am 07:52 Partly Cloudy 42 5.6 21 -6.1 43 43 NW 18 30 30.23 1024 10 16 N/A
8:52 am 08:52 Partly Cloudy 42 5.6 19 -7.2 40 40 NW 22 35 30.26 1025 10 16 N/A
9:52 am 09:52 Partly Cloudy 42 5.6 15 -9.4 33 33 NW 17 28 30.30 1026 10 16 N/A
10:52 am 10:52 Partly Cloudy 41 5 13 -10.6 32 32 WNW 22 35 30.34 1027 10 16 N/A
11:52 am 11:52 Partly Cloudy 41 5 7 -13.9 24 24 NW 22 35 30.32 1027 10 16 N/A
12:52 pm 12:52 Partly Cloudy 41 5 7 -13.9 24 24 NW 10 17 30.31 1026 10 16 N/A
1:52 pm 13:52 Partly Cloudy 40 4.4 7 -13.9 25 25 WNW 16 26 30.33 1027 10 16 N/A
2:52 pm 14:52 Mostly Sunny 40 4.4 1 -17.2 19 19 WNW 17 28 30.35 1028 10 16 N/A
3:52 pm 15:52 Mostly Sunny 38 3.3 1 -17.2 21 21 NW 14 22 30.38 1029 10 16 N/A
4:52 pm 16:52 Mostly Cloudy 36 2.2 N/A 21 21 NW 14 22 30.40 1030 10 16 N/A
5:52 pm 17:52 Mostly Cloudy 34 1.1 2 -16.7 25 25 NNW 8 13 30.43 1031 10 16 N/A
6:52 pm 18:52 Mostly Cloudy 33 0.6 1 -17.2 25 25 NW 9 15 30.45 1031 10 16 N/A
7:52 pm 19:52 Mostly Cloudy 32 undefined 2 -16.7 27 27 NW 12 19 30.47 1032 10 16 N/A
8:52 pm 20:52 Mostly Cloudy 32 undefined 2 -16.7 27 27 WNW 12 19 30.48 1032 10 16 N/A
9:52 pm 21:52 Mostly Cloudy 31 -0.6 5 -15 33 33 N 10 17 30.47 1032 10 16 N/A
10:52 pm 22:52 Cloudy 30 -1.1 N/A 27 27 NNW 13 20 30.48 1032 10 16 N/A
11:52 pm 23:52 Mostly Cloudy 30 -1.1 2 -16.7 30 30 NNW 9 15 30.46 1032 10 16 N/A

Powered by AerisWeather